Location: Rounton
(54.4000°N, 1.3500°W)
Time: 04:19:07
(UTC+01:00)

IRIDIUM 33 DEB - Visible Passes

Search period start: 15 September 2024 00:00
Search period end: 25 September 2024 00:00
Orbit: 578 x 598 km, 86.3° (Epoch: 13 September)

Date Brightness Start Highest point End Pass type
(mag) Time Alt. Az. Time Alt. Az. Time Alt. Az.
15 Sep ? 22:19:13 10° NNE 22:21:27 22° NE 22:21:27 22° NE visible
15 Sep ? 23:55:45 10° NNW 23:57:54 26° NW 23:57:54 26° NW visible
16 Sep ? 22:25:39 10° N 22:27:58 26° NE 22:27:58 26° NE visible
17 Sep ? 00:02:26 10° NNW 00:04:24 22° NW 00:04:24 22° NW visible
17 Sep ? 22:31:44 10° N 22:34:08 29° NNE 22:34:08 29° NNE visible
18 Sep ? 00:08:49 10° NNW 00:10:32 19° NW 00:10:32 19° NW visible
18 Sep ? 22:37:32 10° N 22:39:57 31° NNE 22:39:57 31° NNE visible
19 Sep ? 00:14:54 10° NNW 00:16:20 16° NW 00:16:20 16° NW visible
19 Sep ? 21:08:38 10° NE 21:09:03 10° NE 21:09:03 10° NE visible
19 Sep ? 22:42:59 10° N 22:45:25 33° N 22:45:25 33° N visible
20 Sep ? 00:20:43 10° NW 00:21:46 14° NW 00:21:46 14° NW visible
20 Sep ? 21:12:58 10° NE 21:14:11 13° NE 21:14:11 13° NE visible
20 Sep ? 22:48:07 10° N 22:50:31 33° N 22:50:31 33° N visible
21 Sep ? 00:26:19 10° NW 00:26:50 11° NW 00:26:50 11° NW visible
21 Sep ? 21:17:20 10° NNE 21:18:58 15° NE 21:18:58 15° NE visible
21 Sep ? 22:52:55 10° N 22:55:16 32° NNW 22:55:16 32° NNW visible
22 Sep ? 21:21:29 10° NNE 21:23:23 17° NE 21:23:23 17° NE visible
22 Sep ? 22:57:22 10° NNW 22:59:40 30° NNW 22:59:40 30° NNW visible
23 Sep ? 21:25:22 10° NNE 21:27:27 20° NE 21:27:27 20° NE visible
23 Sep ? 23:01:30 10° NNW 23:03:43 28° NNW 23:03:43 28° NNW visible
24 Sep ? 21:28:56 10° NNE 21:31:10 23° NE 21:31:10 23° NE visible
24 Sep ? 23:05:18 10° NNW 23:07:25 25° NW 23:07:25 25° NW visible
